User: anonymous   Login
Location: Unspecified
(0.0000°N, 0.0000°E)
Time: 15:22:50
(UTC+00:00)
Language:

UGATUSAT - Orbit

View from above orbital plane
View from above orbital plane
View from above satellite
View from above satellite

Ground track
Ground track

The orbit data is extracted from the following two-line orbital elements,

1 35869U 09049E   18050.89928212 -.00000018 +00000-0 +10475-4 0  9999
2 35869 098.4043 065.5415 0005413 132.0485 228.1155 14.22386367437384
Epoch (UTC): 19 February 2018 21:34:57
Eccentricity: 0.0005413
inclination: 98.4043°
perigee height: 813 km
apogee height: 821 km
right ascension of ascending node: 65.5415°
argument of perigee: 132.0485°
revolutions per day: 14.22386367
mean anomaly at epoch: 228.1155°
orbit number at epoch: 43738

The dashed part of the orbit path shows where the satellite is in the earth's shadow,  

DLR